EW3302 Weather Reports


Display with metric or nautical units.
time (UTC)temp
F
wind
direction
speed
MPH
gust
MPH
rain 1hr
in
rain 24hr
in
rain mn
in
humidity
%
barometer
mb
20260902154516 66 248 6.0 17.0 0.00 0.00 0.00 52 1004.3
20260902153516 66 225 7.0 14.0 0.00 0.00 0.00 49 1004.3
20260902152516 66 203 6.0 10.0 0.00 0.00 0.00 50 1004.2
20260902151516 66 225 7.0 13.0 0.00 0.00 0.00 50 1004.3
20260902150516 65 203 4.0 10.0 0.00 0.00 0.00 51 1004.3
20260902145516 66 180 6.0 12.0 0.00 0.00 0.00 49 1004.4
20260902144516 67 225 8.0 14.0 0.00 0.00 0.00 48 1004.3
20260902143516 67 225 8.0 15.0 0.00 0.00 0.00 48 1004.2
20260902142536 66 203 6.0 19.0 0.00 0.00 0.00 50 1004.2
20260902141536 66 203 6.0 14.0 0.00 0.00 0.00 49 1004.2
20260902140515 67 203 8.0 17.0 0.00 0.00 0.00 50 1004.2
20260902135516 67 203 8.0 17.0 0.00 0.00 0.00 49 1004.2
20260902134536 68 203 8.0 15.0 0.00 0.00 0.00 50 1004.2
20260902133515 68 225 8.0 15.0 0.00 0.00 0.00 50 1004.2
20260902132515 68 180 8.0 15.0 0.00 0.00 0.00 53 1004.1
20260902131516 68 203 10.0 16.0 0.00 0.00 0.00 53 1004.1
20260902130516 68 203 9.0 16.0 0.00 0.00 0.00 53 1004.2
20260902125536 68 203 7.0 14.0 0.00 0.00 0.00 58 1004.2
20260902124515 69 203 6.0 15.0 0.00 0.00 0.00 57 1004.2
20260902123516 68 180 6.0 14.0 0.00 0.00 0.00 57 1004.2
20260902122516 68 203 8.0 15.0 0.00 0.00 0.00 55 1004.2
20260902121515 69 203 6.0 15.0 0.00 0.00 0.00 58 1004.2
20260902120535 68 203 6.0 12.0 0.00 0.00 0.00 57 1004.3
20260902115515 67 203 5.0 11.0 0.00 0.00 0.00 58 1004.4
20260902114536 66 180 6.0 11.0 0.00 0.00 0.00 59 1004.5
20260902113516 65 203 6.0 12.0 0.00 0.00 0.00 60 1004.6
20260902112515 65 203 5.0 10.0 0.00 0.00 0.00 60 1004.7
20260902111515 65 203 6.0 11.0 0.00 0.00 0.00 60 1004.8
20260902110536 65 248 6.0 11.0 0.00 0.00 0.00 62 1004.9
20260902105535 66 203 5.0 10.0 0.00 0.00 0.00 68 1005.1
20260902104516 64 180 4.0 7.0 0.00 0.00 0.00 69 1005.2
20260902103535 63 180 4.0 8.0 0.00 0.00 0.00 71 1005.3
20260902102515 64 225 4.0 7.0 0.00 0.00 0.00 69 1005.4
20260902101515 64 180 4.0 11.0 0.00 0.00 0.00 72 1005.5
20260902100516 63 180 3.0 8.0 0.00 0.00 0.00 74 1005.5
20260902095515 62 203 5.0 9.0 0.00 0.00 0.00 73 1005.5
20260902094515 62 180 6.0 11.0 0.00 0.00 0.00 73 1005.6
20260902093535 62 203 5.0 9.0 0.00 0.00 0.00 73 1005.6
20260902092536 63 180 7.0 14.0 0.00 0.00 0.00 72 1005.6
20260902091536 62 180 7.0 16.0 0.00 0.00 0.00 72 1005.7
20260902090536 62 180 5.0 13.0 0.00 0.00 0.00 71 1005.7
20260902085515 62 203 5.0 9.0 0.00 0.00 0.00 73 1005.7
20260902084515 62 203 4.0 8.0 0.00 0.00 0.00 72 1005.6
20260902083515 63 180 6.0 10.0 0.00 0.00 0.00 72 1005.7
20260902082515 62 180 5.0 10.0 0.00 0.00 0.00 74 1005.6
20260902081515 62 180 5.0 8.0 0.00 0.00 0.00 76 1005.6
20260902080535 61 225 5.0 9.0 0.00 0.00 0.00 75 1005.5
20260902075516 61 225 1.0 4.0 0.00 0.00 0.00 78 1005.5
20260902074516 61 270 3.0 6.0 0.00 0.00 0.00 77 1005.6
20260902073517 61 180 3.0 8.0 0.00 0.00 0.00 79 1005.5
20260902072515 61 203 5.0 8.0 0.00 0.00 0.00 80 1005.6
20260902071515 60 203 5.0 8.0 0.00 0.00 0.00 82 1005.5
20260902070515 59 180 3.0 6.0 0.00 0.00 0.00 83 1005.6
20260902065516 59 203 2.0 6.0 0.00 0.00 0.00 85 1005.6
20260902064515 58 180 3.0 5.0 0.00 0.00 0.00 86 1005.6
20260902063516 58 135 2.0 4.0 0.00 0.00 0.00 86 1005.6
20260902062515 58 23 1.0 2.0 0.00 0.00 0.00 87 1005.7
20260902061515 57 23 1.0 2.0 0.00 0.00 0.00 87 1005.7
20260902060518 57 0.0 1.0 0.00 0.00 0.00 88 1005.7
20260902055517 57 0.0 1.0 0.00 0.00 0.00 87 1005.8
20260902054517 57 270 1.0 2.0 0.00 0.00 0.00 88 1005.7
20260902053538 56 0.0 1.0 0.00 0.00 0.00 88 1005.9
20260902052537 56 0.0 2.0 0.00 0.00 0.00 88 1005.9
20260902051517 56 225 1.0 4.0 0.00 0.00 0.00 89 1006.0
20260902050517 56 180 3.0 6.0 0.00 0.00 0.00 89 1006.0
20260902045517 55 203 3.0 6.0 0.00 0.00 0.00 92 1006.1
20260902044517 55 203 5.0 7.0 0.00 0.00 0.00 93 1006.1
20260902043517 55 203 4.0 8.0 0.00 0.00 0.00 96 1006.0
20260902042537 55 203 2.0 3.0 0.00 0.00 0.00 96 1006.0
20260902041517 55 203 3.0 5.0 0.00 0.00 0.00 96 1006.1
20260902040517 55 180 3.0 6.0 0.00 0.00 0.00 97 1006.1
20260902035517 55 180 2.0 4.0 0.00 0.00 0.00 97 1006.2
20260902034517 54 180 1.0 3.0 0.00 0.00 0.00 97 1006.2
20260902033517 54 203 1.0 2.0 0.00 0.00 0.00 97 1006.1
20260902032517 54 180 1.0 3.0 0.00 0.00 0.00 97 1006.3
20260902031517 53 180 2.0 5.0 0.00 0.00 0.00 97 1006.3
20260902030517 52 158 1.0 3.0 0.00 0.00 0.00 97 1006.4
20260902025517 50 0.0 1.0 0.00 0.00 0.00 96 1006.5
20260902024517 50 23 1.0 2.0 0.00 0.00 0.00 96 1006.4
20260902023517 49 225 1.0 2.0 0.00 0.00 0.00 96 1006.5
20260902022518 48 225 1.0 4.0 0.00 0.00 0.00 96 1006.4
20260902021518 47 0.0 1.0 0.00 0.00 0.00 95 1006.3
20260902020517 47 113 1.0 3.0 0.00 0.00 0.00 95 1006.4
20260902015517 47 0.0 1.0 0.00 0.00 0.00 95 1006.4
20260902014537 47 0.0 1.0 0.00 0.00 0.00 95 1006.5
20260902013518 47 0.0 0.0 0.00 0.00 0.00 95 1006.4
20260902012537 48 0.0 1.0 0.00 0.00 0.00 94 1006.5
20260902011517 48 0.0 1.0 0.00 0.00 0.00 94 1006.6
20260902010537 48 0.0 1.0 0.00 0.00 0.00 95 1006.5
20260902005518 48 0.0 0.0 0.00 0.00 0.00 95 1006.5
20260902004519 48 0.0 0.0 0.00 0.00 0.00 95 1006.5
20260902003517 48 0.0 0.0 0.00 0.00 0.00 94 1006.5
20260902002517 48 0.0 1.0 0.00 0.00 0.00 94 1006.6
20260902001517 48 0.0 1.0 0.00 0.00 0.00 94 1006.6
20260902000517 48 0.0 0.0 0.00 0.00 0.00 94 1006.6
20260901235517 49 0.0 1.0 0.00 0.00 0.00 94 1006.7
20260901234517 49 0.0 0.0 0.00 0.00 0.00 94 1006.7
20260901233537 49 113 1.0 2.0 0.00 0.00 0.00 94 1006.8
20260901232517 49 0.0 0.0 0.00 0.00 0.00 94 1006.9
20260901231537 50 113 1.0 2.0 0.00 0.00 0.00 94 1006.8
20260901230517 50 0.0 2.0 0.00 0.00 0.00 94 1006.9
20260901225517 50 0.0 0.0 0.00 0.00 0.00 93 1006.9
20260901224537 50 0.0 1.0 0.00 0.00 0.00 93 1007.0
20260901223517 50 0.0 1.0 0.00 0.00 0.00 93 1007.0
20260901222517 50 0.0 1.0 0.00 0.00 0.00 93 1006.9
20260901221517 50 113 1.0 2.0 0.00 0.00 0.00 93 1007.0
20260901220517 50 113 1.0 1.0 0.00 0.00 0.00 93 1007.1
20260901215516 51 0.0 0.0 0.00 0.00 0.00 92 1007.0
20260901214517 51 0.0 0.0 0.00 0.00 0.00 92 1007.0
20260901213516 51 0.0 1.0 0.00 0.00 0.00 92 1007.0
20260901212517 51 0.0 1.0 0.00 0.00 0.00 92 1007.0
20260901211537 51 113 1.0 2.0 0.00 0.00 0.00 92 1007.0
20260901210516 52 0.0 0.0 0.00 0.00 0.00 91 1007.0
20260901205516 52 0.0 1.0 0.00 0.00 0.00 91 1007.1
20260901204516 52 0.0 1.0 0.00 0.00 0.00 91 1007.1
20260901203517 52 113 1.0 2.0 0.00 0.00 0.00 90 1007.0
20260901202516 52 0.0 1.0 0.00 0.00 0.00 90 1007.0
20260901201516 53 113 1.0 2.0 0.00 0.00 0.00 89 1007.1
20260901200516 53 0.0 1.0 0.00 0.00 0.00 89 1007.0
20260901195516 53 0.0 1.0 0.00 0.00 0.00 88 1007.0
20260901194536 54 0.0 0.0 0.00 0.00 0.00 88 1007.0
20260901193516 54 113 1.0 2.0 0.00 0.00 0.00 87 1007.1
20260901192516 54 0.0 2.0 0.00 0.00 0.00 87 1007.1
20260901191516 55 0.0 1.0 0.00 0.00 0.00 86 1007.1
20260901190556 55 0.0 1.0 0.00 0.00 0.00 85 1007.0
20260901185516 56 0.0 1.0 0.00 0.00 0.00 84 1007.0
20260901184536 57 0.0 1.0 0.00 0.00 0.00 83 1006.9
20260901183516 57 0.0 1.0 0.00 0.00 0.00 81 1006.9
20260901182516 58 0.0 0.0 0.00 0.00 0.00 79 1006.9
20260901181537 59 0.0 0.0 0.00 0.00 0.00 76 1006.9
20260901180536 59 0.0 1.0 0.00 0.00 0.00 74 1006.9
20260901175516 60 0.0 1.0 0.00 0.00 0.00 72 1006.8
20260901174536 61 0.0 0.0 0.00 0.00 0.00 70 1006.8
20260901173516 63 0.0 0.0 0.00 0.00 0.00 68 1006.8
20260901172536 64 113 1.0 3.0 0.00 0.00 0.00 64 1006.8
20260901171516 65 113 1.0 2.0 0.00 0.00 0.00 63 1006.9
20260901170516 65 113 2.0 3.0 0.00 0.00 0.00 60 1006.9
20260901165516 66 113 1.0 2.0 0.00 0.00 0.00 58 1007.0
20260901164516 67 113 2.0 3.0 0.00 0.00 0.00 57 1007.0
20260901163516 67 0.0 2.0 0.00 0.00 0.00 55 1007.1
20260901162516 67 0.0 2.0 0.00 0.00 0.00 58 1007.1
20260901161516 68 45 1.0 2.0 0.00 0.00 0.00 55 1007.1
20260901160516 68 45 2.0 3.0 0.00 0.00 0.00 55 1007.2
20260901155516 68 270 1.0 2.0 0.00 0.00 0.00 54 1007.2